Weather History for Carmi, IL

Change the Weather History Date:

Thursday, May 16, 2013

  Actual Average (KEVV) Record (KEVV)
Temperature  
Mean Temperature 74 °F 66 °F  
Max Temperature 83 °F 77 °F 92 °F (1962)
Min Temperature 66 °F 55 °F 34 °F (1997)
Degree Days  
Heating Degree Days 0 3  
Month to date heating degree days 61  
Since 1 July heating degree days 4516  
Cooling Degree Days 10 3  
Month to date cooling degree days 35  
Year to date cooling degree days 62  
Growing Degree Days 24 (Base 50)    
Moisture  
Dew Point 60 °F    
Average Humidity 64    
Maximum Humidity 85    
Minimum Humidity 43    
Precipitation  
Precipitation 0.00 in 0.18 in 2.74 in (1990)
Month to date precipitation 2.81  
Year to date precipitation 17.69  
Snow  
Snow 0.00 in 0.00 in 0.00 in (2002)
Month to date snowfall 0.0  
Since 1 July snowfall 11.8  
Snow Depth -    
Sea Level Pressure  
Sea Level Pressure 29.93 in    
Wind  
Wind Speed 8 mph (SW)    
Max Wind Speed 16 mph    
Max Gust Speed 21 mph    
Visibility 10 miles    
Events Rain , Thunderstorm    
T = Trace of Precipitation, MM = Missing Value Source: NWS Daily Summary

Daily Weather History Graph

Daily Weather History Graph

Search for Another Location

Airport:

Trip Planner

Search our weather history database for the weather conditions in past years. The results will help you decide how hot, cold, wet, or windy it might be!

Date:

Astronomy

May. 16, 2013 Rise Set
Actual Time 5:40 AM CDT 7:57 PM CDT
Civil Twilight 5:11 AM CDT 8:27 PM CDT
Nautical Twilight 4:34 AM CDT 9:03 PM CDT
Astronomical Twilight 3:54 AM CDT 9:43 PM CDT
Moon 11:12 AM CDT (5/16) 12:19 AM CDT (5/16)
Length of Visible Light 15h 15m
Length of Day
14h 16m
Waxing Crescent, 36% of the Moon is Illuminated
May 16
Waxing Crescent
May 17
First Quarter
May 24
Full
May 31
Last Quarter
Jun 8
New

Hourly Weather History & Observations

Time (CDT) Temp. Heat Index Dew Point Humidity Pressure Visibility Wind Dir Wind Speed Gust Speed Precip Events Conditions
12:15 AM 72.0 °F - 56.1 °F 57% 29.90 in 10.0 mi SSW 9.2 mph - N/A   Clear
12:35 AM 71.6 °F - 56.5 °F 59% 29.90 in 10.0 mi SSW 6.9 mph - N/A   Clear
12:55 AM 71.6 °F - 56.7 °F 59% 29.90 in 10.0 mi SSW 5.8 mph - N/A   Clear
1:15 AM 71.2 °F - 57.2 °F 61% 29.91 in 10.0 mi SW 5.8 mph - N/A   Clear
1:35 AM 70.2 °F - 57.7 °F 65% 29.90 in 10.0 mi SW 6.9 mph - N/A   Clear
1:55 AM 70.7 °F - 57.6 °F 63% 29.89 in 10.0 mi SSW 8.1 mph - N/A   Clear
2:15 AM 70.5 °F - 57.7 °F 64% 29.89 in 10.0 mi SSW 8.1 mph - N/A   Clear
2:35 AM 69.8 °F - 57.7 °F 65% 29.89 in 10.0 mi SW 5.8 mph - N/A   Clear
2:55 AM 68.7 °F - 58.1 °F 69% 29.89 in 10.0 mi South 5.8 mph - N/A   Clear
3:15 AM 66.6 °F - 58.5 °F 75% 29.89 in 10.0 mi SSW 4.6 mph - N/A   Clear
3:35 AM 68.0 °F - 57.7 °F 70% 29.89 in 10.0 mi SSW 5.8 mph - N/A   Clear
3:55 AM 68.0 °F - 57.9 °F 70% 29.90 in 10.0 mi South 4.6 mph - N/A   Clear
4:15 AM 68.7 °F - 57.6 °F 67% 29.90 in 10.0 mi SSW 6.9 mph - N/A   Clear
4:35 AM 69.1 °F - 57.7 °F 67% 29.91 in 10.0 mi SW 9.2 mph - N/A   Clear
4:55 AM 69.3 °F - 58.1 °F 68% 29.92 in 10.0 mi SW 6.9 mph - N/A   Clear
5:15 AM 69.3 °F - 59.0 °F 70% 29.92 in 10.0 mi SW 10.4 mph - N/A   Scattered Clouds
5:35 AM 69.8 °F - 59.5 °F 70% 29.92 in 10.0 mi SW 10.4 mph - N/A   Mostly Cloudy
5:55 AM 70.2 °F - 59.9 °F 70% 29.92 in 10.0 mi SW 11.5 mph - N/A   Overcast
6:15 AM 70.0 °F - 60.3 °F 71% 29.93 in 10.0 mi SW 10.4 mph - N/A   Overcast
6:35 AM 69.8 °F - 61.2 °F 74% 29.94 in 10.0 mi SW 15.0 mph - N/A   Mostly Cloudy
6:55 AM 68.5 °F - 62.6 °F 81% 29.94 in 7.0 mi SW 15.0 mph - N/A Rain Light Rain
7:15 AM 68.9 °F - 62.6 °F 80% 29.95 in 10.0 mi WSW 10.4 mph - N/A Thunderstorm Thunderstorm
7:35 AM 69.3 °F - 62.2 °F 78% 29.96 in 10.0 mi West 8.1 mph - N/A Thunderstorm Scattered Clouds
7:55 AM 69.8 °F - 61.3 °F 74% 29.96 in 10.0 mi SW 9.2 mph - N/A   Scattered Clouds
8:15 AM 70.3 °F - 60.4 °F 71% 29.96 in 10.0 mi WSW 12.7 mph - N/A   Scattered Clouds
8:35 AM 71.1 °F - 60.6 °F 69% 29.95 in 10.0 mi WSW 11.5 mph - N/A   Scattered Clouds
8:55 AM 72.5 °F - 61.5 °F 68% 29.95 in 10.0 mi WSW 10.4 mph - N/A   Mostly Cloudy
9:15 AM 73.4 °F - 61.9 °F 67% 29.95 in 10.0 mi WSW 12.7 mph 16.1 mph N/A   Mostly Cloudy
9:35 AM 75.2 °F - 63.0 °F 66% 29.94 in 10.0 mi West 12.7 mph 18.4 mph N/A   Scattered Clouds
9:55 AM 76.3 °F - 63.5 °F 64% 29.95 in 10.0 mi WSW 13.8 mph - N/A   Scattered Clouds
10:15 AM 76.3 °F - 64.6 °F 67% 29.96 in 10.0 mi WSW 12.7 mph 19.6 mph N/A   Scattered Clouds
10:35 AM 76.1 °F - 63.3 °F 64% 29.97 in 10.0 mi SW 16.1 mph - N/A   Scattered Clouds
10:55 AM 75.9 °F - 63.5 °F 65% 29.97 in 10.0 mi WSW 12.7 mph - N/A   Mostly Cloudy
11:15 AM 77.0 °F - 63.5 °F 63% 29.97 in 10.0 mi West 11.5 mph - N/A   Overcast
11:35 AM 76.3 °F - 61.5 °F 60% 29.97 in 10.0 mi West 11.5 mph - N/A   Overcast
11:55 AM 77.9 °F - 62.1 °F 58% 29.97 in 10.0 mi West 11.5 mph - N/A   Overcast
12:15 PM 79.2 °F - 61.5 °F 55% 29.97 in 10.0 mi West 13.8 mph 18.4 mph N/A   Mostly Cloudy
12:35 PM 78.3 °F - 59.9 °F 53% 29.96 in 10.0 mi WSW 16.1 mph 20.7 mph N/A   Mostly Cloudy
12:55 PM 79.7 °F - 62.6 °F 56% 29.96 in 10.0 mi WSW 10.4 mph - N/A   Mostly Cloudy
1:15 PM 81.0 °F 82.2 °F 63.1 °F 54% 29.95 in 10.0 mi WSW 12.7 mph - N/A   Mostly Cloudy
1:35 PM 80.8 °F 82.0 °F 62.8 °F 54% 29.95 in 10.0 mi WSW 11.5 mph - N/A   Scattered Clouds
1:55 PM 81.0 °F 82.3 °F 63.3 °F 55% 29.95 in 10.0 mi WSW 5.8 mph - N/A   Clear
2:15 PM 81.5 °F 82.5 °F 62.1 °F 52% 29.95 in 10.0 mi WSW 10.4 mph - N/A   Clear
2:35 PM 81.5 °F 81.4 °F 56.8 °F 43% 29.95 in 10.0 mi WSW 8.1 mph - N/A   Clear
2:55 PM 81.7 °F 82.0 °F 59.4 °F 47% 29.94 in 10.0 mi WSW 5.8 mph - N/A   Clear
3:15 PM 82.4 °F 82.7 °F 60.1 °F 47% 29.93 in 10.0 mi West 4.6 mph - N/A   Clear
3:35 PM 83.5 °F 84.1 °F 61.9 °F 48% 29.92 in 10.0 mi South 3.5 mph - N/A   Clear
3:55 PM 82.4 °F 82.7 °F 60.1 °F 47% 29.92 in 10.0 mi Calm Calm - N/A   Clear
4:15 PM 82.6 °F 82.5 °F 58.5 °F 44% 29.92 in 10.0 mi Calm Calm - N/A   Mostly Cloudy
4:35 PM 81.7 °F 81.5 °F 57.4 °F 43% 29.92 in 10.0 mi WSW 3.5 mph - N/A   Scattered Clouds
4:55 PM 81.9 °F 82.2 °F 59.9 °F 47% 29.92 in 10.0 mi SSW 9.2 mph - N/A   Clear
5:15 PM 80.8 °F 81.0 °F 57.7 °F 45% 29.92 in 10.0 mi SSW 6.9 mph - N/A   Clear
5:35 PM 79.9 °F - 57.4 °F 46% 29.91 in 10.0 mi SSW 5.8 mph - N/A   Clear
5:55 PM 79.7 °F - 58.5 °F 48% 29.91 in 10.0 mi SSW 4.6 mph - N/A   Clear
6:15 PM 79.5 °F - 58.1 °F 48% 29.91 in 10.0 mi SSW 4.6 mph - N/A   Clear
6:35 PM 78.3 °F - 59.4 °F 52% 29.91 in 10.0 mi South 5.8 mph - N/A   Scattered Clouds
6:55 PM 77.0 °F - 61.5 °F 59% 29.92 in 10.0 mi South 10.4 mph - N/A   Mostly Cloudy
7:15 PM 75.7 °F - 61.7 °F 62% 29.92 in 10.0 mi South 6.9 mph - N/A   Scattered Clouds
7:35 PM 74.8 °F - 61.9 °F 64% 29.92 in 10.0 mi South 6.9 mph - N/A   Clear
7:55 PM 73.8 °F - 61.0 °F 64% 29.92 in 10.0 mi South 6.9 mph - N/A   Clear
8:15 PM 72.9 °F - 61.2 °F 67% 29.92 in 10.0 mi South 4.6 mph - N/A   Clear
8:35 PM 72.1 °F - 60.8 °F 67% 29.92 in 10.0 mi South 3.5 mph - N/A   Clear
8:55 PM 72.1 °F - 60.1 °F 66% 29.92 in 10.0 mi Calm Calm - N/A   Clear
9:15 PM 72.0 °F - 62.8 °F 73% 29.93 in 10.0 mi Calm Calm - N/A   Clear
9:35 PM 70.5 °F - 62.4 °F 75% 29.94 in 10.0 mi Calm Calm - N/A   Clear
9:55 PM 70.3 °F - 61.5 °F 74% 29.94 in 10.0 mi Calm Calm - N/A   Clear
10:15 PM 68.4 °F - 62.2 °F 81% 29.94 in 10.0 mi Calm Calm - N/A   Clear
10:35 PM 68.2 °F - 61.9 °F 80% 29.93 in 10.0 mi Calm Calm - N/A   Scattered Clouds
10:55 PM 67.6 °F - 61.9 °F 82% 29.94 in 10.0 mi Calm Calm - N/A   Scattered Clouds
11:15 PM 67.3 °F - 62.6 °F 85% 29.94 in 10.0 mi Calm Calm - N/A   Clear
11:35 PM 67.1 °F - 61.9 °F 83% 29.95 in 10.0 mi Calm Calm - N/A   Clear
11:55 PM 66.6 °F - 61.9 °F 85% 29.96 in 10.0 mi Calm Calm - N/A   Mostly Cloudy